Time,TemperatureF,DewpointF,PressureIn,WindDirection,WindDirectionDegrees,WindSpeedMPH,WindSpeedGustMPH,Humidity,HourlyPrecipIn,Conditions,Clouds,dailyrainin,SoftwareType,DateUTC
2013-08-14 00:45:00,68.0,63.0,29.75,SE,135,5.0,6.0,83,0.00,,,0.00,TxWx,2013-08-14 04:45:00,
2013-08-14 00:52:00,68.0,63.0,29.74,SE,135,3.0,5.0,83,0.00,,,0.00,TxWx,2013-08-14 04:52:00,
2013-08-14 00:58:00,68.0,63.0,29.74,ESE,112,6.0,6.0,83,0.00,,,0.00,TxWx,2013-08-14 04:58:00,
2013-08-14 01:03:00,68.0,62.0,29.74,SE,135,4.0,5.0,83,0.00,,,0.00,TxWx,2013-08-14 05:03:00,
2013-08-14 01:09:00,67.0,61.0,29.74,ESE,112,6.0,8.0,83,0.00,,,0.00,TxWx,2013-08-14 05:09:00,
2013-08-14 01:14:00,67.0,61.0,29.74,SSE,157,6.0,6.0,82,0.00,,,0.00,TxWx,2013-08-14 05:14:00,
2013-08-14 01:20:00,67.0,61.0,29.75,South,180,11.0,12.0,82,0.00,,,0.00,TxWx,2013-08-14 05:20:00,
2013-08-14 01:25:00,67.0,61.0,29.75,South,180,10.0,11.0,81,0.00,,,0.00,TxWx,2013-08-14 05:25:00,
2013-08-14 01:30:00,67.0,60.0,29.75,SE,135,5.0,7.0,79,0.00,,,0.00,TxWx,2013-08-14 05:30:00,
2013-08-14 01:36:00,67.0,60.0,29.75,SSE,157,5.0,5.0,79,0.00,,,0.00,TxWx,2013-08-14 05:36:00,
2013-08-14 01:41:00,67.0,60.0,29.75,South,180,3.0,4.0,78,0.00,,,0.00,TxWx,2013-08-14 05:41:00,
2013-08-14 01:46:00,67.0,60.0,29.75,SSE,157,6.0,8.0,78,0.00,,,0.00,TxWx,2013-08-14 05:46:00,
2013-08-14 01:51:00,67.0,60.0,29.75,East,90,5.0,6.0,77,0.00,,,0.00,TxWx,2013-08-14 05:51:00,
2013-08-14 01:56:00,67.0,60.0,29.75,SE,135,5.0,6.0,77,0.00,,,0.00,TxWx,2013-08-14 05:56:00,
2013-08-14 02:01:00,66.0,58.0,29.75,SSE,157,5.0,6.0,77,0.00,,,0.00,TxWx,2013-08-14 06:01:00,
2013-08-14 02:06:00,66.0,58.0,29.75,SE,135,4.0,4.0,76,0.00,,,0.00,TxWx,2013-08-14 06:06:00,
2013-08-14 02:12:00,66.0,58.0,29.75,SE,135,4.0,4.0,76,0.00,,,0.00,TxWx,2013-08-14 06:12:00,
2013-08-14 02:17:00,66.0,58.0,29.75,SE,135,4.0,5.0,76,0.00,,,0.00,TxWx,2013-08-14 06:17:00,
2013-08-14 02:22:00,66.0,58.0,29.75,SSE,157,3.0,5.0,75,0.00,,,0.00,TxWx,2013-08-14 06:22:00,
2013-08-14 02:28:00,66.0,58.0,29.75,ESE,112,5.0,5.0,75,0.00,,,0.00,TxWx,2013-08-14 06:28:00,
2013-08-14 02:33:00,66.0,58.0,29.75,SSW,202,3.0,4.0,75,0.00,,,0.00,TxWx,2013-08-14 06:33:00,
2013-08-14 02:38:00,66.0,57.0,29.75,SE,135,4.0,4.0,74,0.00,,,0.00,TxWx,2013-08-14 06:38:00,
2013-08-14 02:43:00,66.0,57.0,29.75,SSE,157,5.0,5.0,74,0.00,,,0.00,TxWx,2013-08-14 06:43:00,
2013-08-14 02:49:00,66.0,57.0,29.75,ESE,112,6.0,7.0,74,0.00,,,0.00,TxWx,2013-08-14 06:49:00,
2013-08-14 02:54:00,66.0,57.0,29.75,SE,135,6.0,8.0,74,0.00,,,0.00,TxWx,2013-08-14 06:54:00,
2013-08-14 02:59:00,66.0,57.0,29.75,South,180,5.0,5.0,73,0.00,,,0.00,TxWx,2013-08-14 06:59:00,
2013-08-14 03:05:00,65.0,56.0,29.75,SSE,157,3.0,5.0,73,0.00,,,0.00,TxWx,2013-08-14 07:05:00,
2013-08-14 03:10:00,65.0,56.0,29.75,East,90,2.0,5.0,73,0.00,,,0.00,TxWx,2013-08-14 07:10:00,
2013-08-14 03:16:00,65.0,56.0,29.74,North,0,1.0,3.0,74,0.00,,,0.00,TxWx,2013-08-14 07:16:00,
2013-08-14 03:21:00,65.0,56.0,29.74,SW,225,5.0,5.0,74,0.00,,,0.00,TxWx,2013-08-14 07:21:00,
2013-08-14 03:26:00,65.0,56.0,29.74,SSE,157,2.0,3.0,74,0.00,,,0.00,TxWx,2013-08-14 07:26:00,
2013-08-14 03:32:00,64.0,56.0,29.74,South,180,3.0,4.0,74,0.00,,,0.00,TxWx,2013-08-14 07:32:00,
2013-08-14 03:37:00,64.0,56.0,29.74,SSE,157,3.0,3.0,74,0.00,,,0.00,TxWx,2013-08-14 07:37:00,
2013-08-14 03:42:00,64.0,56.0,29.75,SW,225,3.0,3.0,75,0.00,,,0.00,TxWx,2013-08-14 07:42:00,
2013-08-14 03:47:00,64.0,56.0,29.74,SW,225,2.0,3.0,75,0.00,,,0.00,TxWx,2013-08-14 07:47:00,
2013-08-14 03:53:00,63.0,55.0,29.75,ENE,67,3.0,3.0,75,0.00,,,0.00,TxWx,2013-08-14 07:53:00,
2013-08-14 03:58:00,63.0,56.0,29.74,SSE,157,1.0,2.0,77,0.00,,,0.00,TxWx,2013-08-14 07:58:00,
2013-08-14 04:03:00,62.0,55.0,29.75,East,90,2.0,2.0,78,0.00,,,0.00,TxWx,2013-08-14 08:03:00,
2013-08-14 04:08:00,62.0,55.0,29.75,ESE,112,1.0,2.0,79,0.00,,,0.00,TxWx,2013-08-14 08:08:00,
2013-08-14 04:14:00,62.0,56.0,29.75,SE,135,4.0,4.0,80,0.00,,,0.00,TxWx,2013-08-14 08:14:00,
2013-08-14 04:19:00,63.0,56.0,29.75,SSE,157,1.0,1.0,79,0.00,,,0.00,TxWx,2013-08-14 08:19:00,
2013-08-14 04:24:00,63.0,56.0,29.75,SW,225,0.0,0.0,79,0.00,,,0.00,TxWx,2013-08-14 08:24:00,
2013-08-14 04:29:00,62.0,55.0,29.75,North,0,1.0,1.0,78,0.00,,,0.00,TxWx,2013-08-14 08:29:00,
2013-08-14 04:35:00,62.0,55.0,29.75,NNW,337,1.0,1.0,78,0.00,,,0.00,TxWx,2013-08-14 08:35:00,
2013-08-14 04:40:00,62.0,55.0,29.75,ESE,112,1.0,1.0,78,0.00,,,0.00,TxWx,2013-08-14 08:40:00,
2013-08-14 04:45:00,61.0,54.0,29.75,East,90,1.0,1.0,78,0.00,,,0.00,TxWx,2013-08-14 08:45:00,
2013-08-14 04:51:00,61.0,54.0,29.75,ENE,67,2.0,3.0,79,0.00,,,0.00,TxWx,2013-08-14 08:51:00,
2013-08-14 04:56:00,62.0,55.0,29.75,SE,135,4.0,4.0,79,0.00,,,0.00,TxWx,2013-08-14 08:56:00,
2013-08-14 05:02:00,62.0,55.0,29.75,SE,135,5.0,5.0,77,0.00,,,0.00,TxWx,2013-08-14 09:02:00,
2013-08-14 05:07:00,63.0,55.0,29.75,South,180,6.0,6.0,75,0.00,,,0.00,TxWx,2013-08-14 09:07:00,
2013-08-14 05:12:00,63.0,54.0,29.75,South,180,1.0,2.0,73,0.00,,,0.00,TxWx,2013-08-14 09:12:00,
2013-08-14 05:17:00,63.0,54.0,29.75,East,90,5.0,5.0,73,0.00,,,0.00,TxWx,2013-08-14 09:17:00,
2013-08-14 05:22:00,63.0,54.0,29.75,East,90,4.0,5.0,72,0.00,,,0.00,TxWx,2013-08-14 09:22:00,
2013-08-14 05:28:00,63.0,53.0,29.75,SSW,202,3.0,3.0,71,0.00,,,0.00,TxWx,2013-08-14 09:28:00,
2013-08-14 05:33:00,63.0,53.0,29.75,ESE,112,5.0,6.0,69,0.00,,,0.00,TxWx,2013-08-14 09:33:00,
2013-08-14 05:39:00,64.0,54.0,29.76,East,90,6.0,7.0,69,0.00,,,0.00,TxWx,2013-08-14 09:39:00,
2013-08-14 05:44:00,64.0,53.0,29.75,SE,135,4.0,5.0,68,0.00,,,0.00,TxWx,2013-08-14 09:44:00,
2013-08-14 05:49:00,63.0,53.0,29.76,NE,45,1.0,2.0,69,0.00,,,0.00,TxWx,2013-08-14 09:49:00,
2013-08-14 05:54:00,63.0,53.0,29.76,East,90,3.0,3.0,69,0.00,,,0.00,TxWx,2013-08-14 09:54:00,
2013-08-14 05:59:00,63.0,53.0,29.76,ESE,112,4.0,4.0,69,0.00,,,0.00,TxWx,2013-08-14 09:59:00,
2013-08-14 06:04:00,63.0,53.0,29.76,ESE,112,3.0,3.0,69,0.00,,,0.00,TxWx,2013-08-14 10:04:00,
2013-08-14 06:09:00,63.0,52.0,29.76,ENE,67,9.0,9.0,69,0.00,,,0.00,TxWx,2013-08-14 10:09:00,
2013-08-14 06:15:00,63.0,52.0,29.76,ESE,112,5.0,5.0,68,0.00,,,0.00,TxWx,2013-08-14 10:15:00,
2013-08-14 06:20:00,63.0,52.0,29.77,ENE,67,3.0,6.0,69,0.00,,,0.00,TxWx,2013-08-14 10:20:00,
2013-08-14 06:25:00,63.0,53.0,29.77,SSW,202,3.0,3.0,69,0.00,,,0.00,TxWx,2013-08-14 10:25:00,
2013-08-14 06:30:00,63.0,53.0,29.77,SE,135,3.0,4.0,70,0.00,,,0.00,TxWx,2013-08-14 10:30:00,
2013-08-14 06:36:00,62.0,52.0,29.77,SSE,157,1.0,2.0,71,0.00,,,0.00,TxWx,2013-08-14 10:36:00,
2013-08-14 06:41:00,62.0,52.0,29.78,ENE,67,1.0,1.0,71,0.00,,,0.00,TxWx,2013-08-14 10:41:00,
2013-08-14 06:46:00,62.0,53.0,29.78,East,90,1.0,1.0,72,0.00,,,0.00,TxWx,2013-08-14 10:46:00,
2013-08-14 06:51:00,62.0,53.0,29.78,ENE,67,0.0,1.0,73,0.00,,,0.00,TxWx,2013-08-14 10:51:00,
2013-08-14 06:56:00,62.0,53.0,29.78,NE,45,0.0,1.0,74,0.00,,,0.00,TxWx,2013-08-14 10:56:00,
2013-08-14 07:02:00,63.0,55.0,29.78,South,180,1.0,2.0,75,0.00,,,0.00,TxWx,2013-08-14 11:02:00,
2013-08-14 07:07:00,63.0,55.0,29.78,South,180,1.0,1.0,75,0.00,,,0.00,TxWx,2013-08-14 11:07:00,
2013-08-14 07:12:00,63.0,55.0,29.78,SE,135,1.0,1.0,75,0.00,,,0.00,TxWx,2013-08-14 11:12:00,
2013-08-14 07:17:00,64.0,56.0,29.78,SSW,202,2.0,3.0,75,0.00,,,0.00,TxWx,2013-08-14 11:17:00,
2013-08-14 07:22:00,63.0,55.0,29.78,WNW,292,1.0,1.0,75,0.00,,,0.00,TxWx,2013-08-14 11:22:00,
2013-08-14 07:28:00,63.0,55.0,29.78,ESE,112,1.0,1.0,75,0.00,,,0.00,TxWx,2013-08-14 11:28:00,
2013-08-14 07:33:00,63.0,55.0,29.78,SW,225,2.0,2.0,76,0.00,,,0.00,TxWx,2013-08-14 11:33:00,
2013-08-14 07:38:00,63.0,55.0,29.78,West,270,1.0,1.0,76,0.00,,,0.00,TxWx,2013-08-14 11:38:00,
2013-08-14 07:43:00,64.0,56.0,29.78,SW,225,2.0,2.0,77,0.00,,,0.00,TxWx,2013-08-14 11:43:00,
2013-08-14 07:49:00,65.0,57.0,29.78,SSW,202,1.0,1.0,76,0.00,,,0.00,TxWx,2013-08-14 11:49:00,
2013-08-14 07:54:00,65.0,57.0,29.78,SW,225,1.0,1.0,75,0.00,,,0.00,TxWx,2013-08-14 11:54:00,
2013-08-14 07:59:00,66.0,57.0,29.78,WSW,247,0.0,1.0,74,0.00,,,0.00,TxWx,2013-08-14 11:59:00,
2013-08-14 08:04:00,66.0,57.0,29.78,WSW,247,3.0,3.0,72,0.00,,,0.00,TxWx,2013-08-14 12:04:00,
2013-08-14 08:10:00,66.0,55.0,29.78,SSE,157,1.0,2.0,69,0.00,,,0.00,TxWx,2013-08-14 12:10:00,
2013-08-14 08:15:00,66.0,55.0,29.78,SW,225,1.0,2.0,68,0.00,,,0.00,TxWx,2013-08-14 12:15:00,
2013-08-14 08:20:00,66.0,55.0,29.78,SSE,157,2.0,2.0,67,0.00,,,0.00,TxWx,2013-08-14 12:20:00,
2013-08-14 08:26:00,66.0,54.0,29.79,South,180,2.0,3.0,66,0.00,,,0.00,TxWx,2013-08-14 12:26:00,
2013-08-14 08:31:00,66.0,54.0,29.79,NNE,22,2.0,3.0,66,0.00,,,0.00,TxWx,2013-08-14 12:31:00,
2013-08-14 08:36:00,66.0,54.0,29.79,SSW,202,2.0,3.0,66,0.00,,,0.00,TxWx,2013-08-14 12:36:00,
2013-08-14 08:41:00,67.0,55.0,29.79,West,270,2.0,3.0,66,0.00,,,0.00,TxWx,2013-08-14 12:41:00,
2013-08-14 08:46:00,67.0,54.0,29.79,ESE,112,3.0,4.0,64,0.00,,,0.00,TxWx,2013-08-14 12:46:00,
2013-08-14 08:51:00,67.0,54.0,29.79,SE,135,5.0,6.0,64,0.00,,,0.00,TxWx,2013-08-14 12:51:00,
2013-08-14 08:57:00,66.0,53.0,29.79,SE,135,3.0,3.0,64,0.00,,,0.00,TxWx,2013-08-14 12:57:00,
2013-08-14 09:02:00,66.0,53.0,29.79,SE,135,3.0,3.0,64,0.00,,,0.00,TxWx,2013-08-14 13:02:00,
2013-08-14 09:07:00,66.0,54.0,29.80,NE,45,3.0,3.0,65,0.00,,,0.00,TxWx,2013-08-14 13:07:00,
2013-08-14 09:12:00,66.0,54.0,29.80,SE,135,3.0,3.0,66,0.00,,,0.00,TxWx,2013-08-14 13:12:00,
2013-08-14 09:17:00,67.0,55.0,29.80,SSE,157,6.0,6.0,66,0.00,,,0.00,TxWx,2013-08-14 13:17:00,
2013-08-14 09:23:00,67.0,55.0,29.80,SSE,157,4.0,5.0,65,0.00,,,0.00,TxWx,2013-08-14 13:23:00,
2013-08-14 09:28:00,67.0,55.0,29.80,NW,315,3.0,3.0,65,0.00,,,0.00,TxWx,2013-08-14 13:28:00,
2013-08-14 09:33:00,68.0,56.0,29.80,NE,45,5.0,7.0,65,0.00,,,0.00,TxWx,2013-08-14 13:33:00,
2013-08-14 09:39:00,67.0,54.0,29.80,ENE,67,3.0,3.0,64,0.00,,,0.00,TxWx,2013-08-14 13:39:00,
2013-08-14 09:44:00,68.0,56.0,29.80,NE,45,3.0,3.0,65,0.00,,,0.00,TxWx,2013-08-14 13:44:00,
2013-08-14 09:49:00,68.0,55.0,29.80,North,0,3.0,3.0,64,0.00,,,0.00,TxWx,2013-08-14 13:49:00,
2013-08-14 09:54:00,68.0,56.0,29.79,North,0,5.0,5.0,65,0.00,,,0.00,TxWx,2013-08-14 13:54:00,
2013-08-14 10:00:00,68.0,55.0,29.79,ENE,67,5.0,6.0,64,0.00,,,0.00,TxWx,2013-08-14 14:00:00,
2013-08-14 10:05:00,68.0,55.0,29.79,WNW,292,3.0,3.0,64,0.00,,,0.00,TxWx,2013-08-14 14:05:00,
2013-08-14 10:11:00,68.0,55.0,29.79,ENE,67,5.0,6.0,63,0.00,,,0.00,TxWx,2013-08-14 14:11:00,
2013-08-14 10:16:00,69.0,56.0,29.80,ENE,67,3.0,4.0,64,0.00,,,0.00,TxWx,2013-08-14 14:16:00,
2013-08-14 10:21:00,69.0,56.0,29.80,NW,315,2.0,2.0,63,0.00,,,0.00,TxWx,2013-08-14 14:21:00,
2013-08-14 10:25:00,69.0,56.0,29.80,NE,45,3.0,5.0,63,0.00,,,0.00,TxWx,2013-08-14 14:25:00,
2013-08-14 10:30:00,69.0,56.0,29.80,ESE,112,9.0,10.0,63,0.00,,,0.00,TxWx,2013-08-14 14:30:00,
2013-08-14 10:35:00,69.0,56.0,29.80,ENE,67,9.0,9.0,63,0.00,,,0.00,TxWx,2013-08-14 14:35:00,
2013-08-14 10:41:00,69.0,55.0,29.80,ESE,112,12.0,13.0,62,0.00,,,0.00,TxWx,2013-08-14 14:41:00,
2013-08-14 10:46:00,68.0,55.0,29.80,SSE,157,9.0,11.0,63,0.00,,,0.00,TxWx,2013-08-14 14:46:00,
2013-08-14 10:52:00,68.0,54.0,29.81,SE,135,13.0,13.0,62,0.00,,,0.00,TxWx,2013-08-14 14:52:00,
2013-08-14 10:57:00,69.0,55.0,29.81,ESE,112,7.0,8.0,62,0.00,,,0.00,TxWx,2013-08-14 14:57:00,
2013-08-14 11:02:00,69.0,55.0,29.81,East,90,5.0,7.0,61,0.00,,,0.00,TxWx,2013-08-14 15:02:00,
2013-08-14 11:07:00,69.0,55.0,29.80,East,90,6.0,8.0,61,0.00,,,0.00,TxWx,2013-08-14 15:07:00,
2013-08-14 11:13:00,70.0,56.0,29.81,East,90,6.0,11.0,61,0.00,,,0.00,TxWx,2013-08-14 15:13:00,
2013-08-14 11:18:00,70.0,55.0,29.80,East,90,3.0,3.0,59,0.00,,,0.00,TxWx,2013-08-14 15:18:00,
2013-08-14 11:23:00,71.0,57.0,29.84,East,90,4.0,5.0,61,0.00,,,0.00,TxWx,2013-08-14 15:23:00,
2013-08-14 11:29:00,71.0,56.0,29.81,ENE,67,6.0,8.0,59,0.00,,,0.00,TxWx,2013-08-14 15:29:00,
2013-08-14 11:34:00,71.0,55.0,29.81,ENE,67,10.0,11.0,58,0.00,,,0.00,TxWx,2013-08-14 15:34:00,
2013-08-14 11:39:00,71.0,56.0,29.80,East,90,7.0,11.0,59,0.00,,,0.00,TxWx,2013-08-14 15:39:00,
2013-08-14 11:44:00,72.0,56.0,29.81,East,90,12.0,13.0,58,0.00,,,0.00,TxWx,2013-08-14 15:44:00,
2013-08-14 11:50:00,72.0,56.0,29.81,East,90,16.0,16.0,58,0.00,,,0.00,TxWx,2013-08-14 15:50:00,
2013-08-14 11:55:00,72.0,57.0,29.81,East,90,14.0,14.0,59,0.00,,,0.00,TxWx,2013-08-14 15:55:00,
2013-08-14 12:00:00,72.0,57.0,29.81,East,90,10.0,11.0,59,0.00,,,0.00,TxWx,2013-08-14 16:00:00,
2013-08-14 12:05:00,72.0,57.0,29.81,ENE,67,3.0,3.0,59,0.00,,,0.00,TxWx,2013-08-14 16:05:00,
2013-08-14 12:11:00,72.0,56.0,29.81,ESE,112,3.0,4.0,57,0.00,,,0.00,TxWx,2013-08-14 16:11:00,
2013-08-14 12:16:00,72.0,56.0,29.81,SE,135,8.0,11.0,58,0.00,,,0.00,TxWx,2013-08-14 16:16:00,
2013-08-14 12:22:00,72.0,56.0,29.81,ESE,112,6.0,6.0,58,0.00,,,0.00,TxWx,2013-08-14 16:22:00,
2013-08-14 12:27:00,72.0,56.0,29.81,East,90,7.0,11.0,57,0.00,,,0.00,TxWx,2013-08-14 16:27:00,
2013-08-14 12:32:00,72.0,56.0,29.81,East,90,9.0,10.0,57,0.00,,,0.00,TxWx,2013-08-14 16:32:00,
2013-08-14 12:37:00,72.0,55.0,29.82,ESE,112,11.0,13.0,56,0.00,,,0.00,TxWx,2013-08-14 16:37:00,
2013-08-14 12:42:00,72.0,55.0,29.82,East,90,9.0,11.0,56,0.00,,,0.00,TxWx,2013-08-14 16:42:00,
2013-08-14 12:47:00,73.0,56.0,29.81,SSE,157,7.0,9.0,56,0.00,,,0.00,TxWx,2013-08-14 16:47:00,
2013-08-14 12:53:00,73.0,57.0,29.81,SSE,157,9.0,9.0,57,0.00,,,0.00,TxWx,2013-08-14 16:53:00,
2013-08-14 12:58:00,74.0,57.0,29.82,ESE,112,9.0,14.0,55,0.00,,,0.00,TxWx,2013-08-14 16:58:00,
2013-08-14 13:03:00,73.0,56.0,29.81,ENE,67,6.0,11.0,55,0.00,,,0.00,TxWx,2013-08-14 17:03:00,
2013-08-14 13:08:00,73.0,55.0,29.81,ESE,112,13.0,13.0,54,0.00,,,0.00,TxWx,2013-08-14 17:08:00,
2013-08-14 13:14:00,73.0,56.0,29.81,East,90,9.0,9.0,56,0.00,,,0.00,TxWx,2013-08-14 17:14:00,
2013-08-14 13:19:00,73.0,56.0,29.81,ENE,67,4.0,5.0,56,0.00,,,0.00,TxWx,2013-08-14 17:19:00,
2013-08-14 13:24:00,73.0,56.0,29.81,ESE,112,6.0,8.0,55,0.00,,,0.00,TxWx,2013-08-14 17:24:00,
2013-08-14 13:29:00,73.0,56.0,29.81,SSE,157,9.0,9.0,56,0.00,,,0.00,TxWx,2013-08-14 17:29:00,
2013-08-14 13:35:00,73.0,56.0,29.81,ESE,112,13.0,16.0,55,0.00,,,0.00,TxWx,2013-08-14 17:35:00,
2013-08-14 13:40:00,73.0,55.0,29.81,SE,135,3.0,5.0,54,0.00,,,0.00,TxWx,2013-08-14 17:40:00,
2013-08-14 13:45:00,73.0,56.0,29.82,ESE,112,8.0,11.0,55,0.00,,,0.00,TxWx,2013-08-14 17:45:00,
2013-08-14 13:50:00,73.0,55.0,29.82,ESE,112,8.0,12.0,54,0.00,,,0.00,TxWx,2013-08-14 17:50:00,
2013-08-14 13:55:00,73.0,56.0,29.82,East,90,11.0,11.0,55,0.00,,,0.00,TxWx,2013-08-14 17:55:00,
2013-08-14 14:01:00,73.0,56.0,29.82,SE,135,8.0,8.0,56,0.00,,,0.00,TxWx,2013-08-14 18:01:00,
2013-08-14 14:06:00,73.0,56.0,29.81,ENE,67,5.0,6.0,56,0.00,,,0.00,TxWx,2013-08-14 18:06:00,
2013-08-14 14:11:00,74.0,58.0,29.82,ESE,112,11.0,13.0,57,0.00,,,0.00,TxWx,2013-08-14 18:11:00,
2013-08-14 14:17:00,74.0,57.0,29.82,East,90,5.0,8.0,56,0.00,,,0.00,TxWx,2013-08-14 18:17:00,
2013-08-14 14:22:00,74.0,57.0,29.82,East,90,11.0,15.0,56,0.00,,,0.00,TxWx,2013-08-14 18:22:00,
2013-08-14 14:28:00,74.0,58.0,29.82,NE,45,3.0,3.0,57,0.00,,,0.00,TxWx,2013-08-14 18:28:00,
2013-08-14 14:33:00,74.0,58.0,29.82,ESE,112,8.0,11.0,57,0.00,,,0.00,TxWx,2013-08-14 18:33:00,
2013-08-14 14:39:00,74.0,57.0,29.82,SSE,157,5.0,6.0,56,0.00,,,0.00,TxWx,2013-08-14 18:39:00,
2013-08-14 14:44:00,74.0,57.0,29.81,ENE,67,7.0,7.0,56,0.00,,,0.00,TxWx,2013-08-14 18:44:00,
2013-08-14 14:50:00,74.0,57.0,29.81,SE,135,6.0,9.0,56,0.00,,,0.00,TxWx,2013-08-14 18:50:00,
2013-08-14 14:55:00,75.0,58.0,29.81,ENE,67,4.0,5.0,56,0.00,,,0.00,TxWx,2013-08-14 18:55:00,
2013-08-14 15:00:00,67.0,55.0,29.98,East,90,5.0,5.0,67,0.00,,,0.00,TxWx,2013-08-14 19:00:00,
2013-08-14 15:01:00,75.0,57.0,29.82,NE,45,9.0,10.0,55,0.00,,,0.00,TxWx,2013-08-14 19:01:00,
2013-08-14 15:02:00,67.0,55.0,29.98,SSE,157,5.0,8.0,67,0.00,,,0.00,TxWx,2013-08-14 19:02:00,
2013-08-14 15:03:00,67.0,55.0,29.99,SE,135,5.0,5.0,67,0.00,,,0.00,TxWx,2013-08-14 19:03:00,
2013-08-14 15:04:00,67.0,55.0,29.99,ESE,112,3.0,6.0,66,0.00,,,0.00,TxWx,2013-08-14 19:04:00,
2013-08-14 15:05:00,67.0,55.0,29.99,East,90,7.0,8.0,66,0.00,,,0.00,TxWx,2013-08-14 19:05:00,
2013-08-14 15:06:00,75.0,57.0,29.82,ESE,112,9.0,14.0,54,0.00,,,0.00,TxWx,2013-08-14 19:06:00,
2013-08-14 15:07:00,67.0,55.0,29.99,SSE,157,3.0,5.0,66,0.00,,,0.00,TxWx,2013-08-14 19:07:00,
2013-08-14 15:08:00,67.0,55.0,29.99,SE,135,6.0,6.0,66,0.00,,,0.00,TxWx,2013-08-14 19:08:00,
2013-08-14 15:09:00,67.0,55.0,29.99,East,90,2.0,3.0,66,0.00,,,0.00,TxWx,2013-08-14 19:09:00,
2013-08-14 15:10:00,67.0,55.0,29.99,South,180,2.0,3.0,66,0.00,,,0.00,TxWx,2013-08-14 19:10:00,
2013-08-14 15:11:00,67.0,55.0,29.99,East,90,5.0,7.0,66,0.00,,,0.00,TxWx,2013-08-14 19:11:00,
2013-08-14 15:12:00,75.0,57.0,29.82,SE,135,3.0,6.0,54,0.00,,,0.00,TxWx,2013-08-14 19:12:00,
2013-08-14 15:13:00,67.0,55.0,29.99,SE,135,4.0,4.0,66,0.00,,,0.00,TxWx,2013-08-14 19:13:00,
2013-08-14 15:14:00,67.0,55.0,29.99,ESE,112,3.0,4.0,66,0.00,,,0.00,TxWx,2013-08-14 19:14:00,
2013-08-14 15:15:00,67.0,55.0,29.99,SSE,157,3.0,4.0,66,0.00,,,0.00,TxWx,2013-08-14 19:15:00,
2013-08-14 15:16:00,67.0,55.0,29.99,ENE,67,3.0,5.0,66,0.00,,,0.00,TxWx,2013-08-14 19:16:00,
2013-08-14 15:17:00,75.0,56.0,29.82,South,180,11.0,11.0,52,0.00,,,0.00,TxWx,2013-08-14 19:17:00,
2013-08-14 15:18:00,67.0,55.0,29.99,SSE,157,3.0,4.0,66,0.00,,,0.00,TxWx,2013-08-14 19:18:00,
2013-08-14 15:19:00,67.0,55.0,29.99,NNW,337,2.0,3.0,66,0.00,,,0.00,TxWx,2013-08-14 19:19:00,
2013-08-14 15:20:00,67.0,55.0,29.99,WNW,292,1.0,2.0,66,0.00,,,0.00,TxWx,2013-08-14 19:20:00,
2013-08-14 15:21:00,67.0,55.0,29.99,SSE,157,1.0,1.0,66,0.00,,,0.00,TxWx,2013-08-14 19:21:00,
2013-08-14 15:22:00,67.0,55.0,29.99,East,90,3.0,3.0,66,0.00,,,0.00,TxWx,2013-08-14 19:22:00,
2013-08-14 15:23:00,75.0,56.0,29.82,ENE,67,10.0,12.0,52,0.00,,,0.00,TxWx,2013-08-14 19:23:00,
2013-08-14 15:24:00,67.0,55.0,29.99,NW,315,1.0,2.0,66,0.00,,,0.00,TxWx,2013-08-14 19:24:00,
2013-08-14 15:25:00,66.0,54.0,29.99,SW,225,1.0,1.0,66,0.00,,,0.00,TxWx,2013-08-14 19:25:00,
2013-08-14 15:26:00,66.0,54.0,29.99,South,180,1.0,1.0,67,0.00,,,0.00,TxWx,2013-08-14 19:26:00,
2013-08-14 15:27:00,66.0,54.0,29.99,SE,135,4.0,5.0,67,0.00,,,0.00,TxWx,2013-08-14 19:27:00,
2013-08-14 15:28:00,75.0,56.0,29.83,ESE,112,6.0,8.0,53,0.00,,,0.00,TxWx,2013-08-14 19:28:00,
2013-08-14 15:29:00,66.0,54.0,29.99,SSE,157,1.0,2.0,67,0.00,,,0.00,TxWx,2013-08-14 19:29:00,
2013-08-14 15:30:00,66.0,54.0,29.99,SE,135,3.0,3.0,67,0.00,,,0.00,TxWx,2013-08-14 19:30:00,
2013-08-14 15:31:00,66.0,54.0,29.99,ESE,112,8.0,8.0,67,0.00,,,0.00,TxWx,2013-08-14 19:31:00,
2013-08-14 15:32:00,66.0,54.0,29.99,SSE,157,2.0,3.0,67,0.00,,,0.00,TxWx,2013-08-14 19:32:00,
2013-08-14 15:33:00,75.0,56.0,29.83,SSE,157,13.0,18.0,53,0.00,,,0.00,TxWx,2013-08-14 19:33:00,
2013-08-14 15:34:00,66.0,54.0,30.00,ESE,112,5.0,6.0,67,0.00,,,0.00,TxWx,2013-08-14 19:34:00,
2013-08-14 15:35:00,66.0,54.0,29.99,SSE,157,5.0,7.0,66,0.00,,,0.00,TxWx,2013-08-14 19:35:00,
2013-08-14 15:36:00,66.0,54.0,30.00,West,270,2.0,3.0,66,0.00,,,0.00,TxWx,2013-08-14 19:36:00,
2013-08-14 15:37:00,66.0,54.0,30.00,WSW,247,3.0,3.0,66,0.00,,,0.00,TxWx,2013-08-14 19:37:00,
2013-08-14 15:38:00,75.0,57.0,29.83,East,90,8.0,10.0,53,0.00,,,0.00,TxWx,2013-08-14 19:38:00,
2013-08-14 15:39:00,66.0,54.0,29.99,East,90,2.0,2.0,66,0.00,,,0.00,TxWx,2013-08-14 19:39:00,
2013-08-14 15:40:00,66.0,54.0,30.00,NE,45,3.0,3.0,66,0.00,,,0.00,TxWx,2013-08-14 19:40:00,
2013-08-14 15:41:00,66.0,54.0,30.00,East,90,3.0,3.0,66,0.00,,,0.00,TxWx,2013-08-14 19:41:00,
2013-08-14 15:42:00,66.0,54.0,30.00,East,90,1.0,3.0,66,0.00,,,0.00,TxWx,2013-08-14 19:42:00,
2013-08-14 15:43:00,75.0,55.0,29.83,ESE,112,11.0,20.0,51,0.00,,,0.00,TxWx,2013-08-14 19:43:00,
2013-08-14 15:44:00,66.0,54.0,30.00,West,270,1.0,2.0,66,0.00,,,0.00,TxWx,2013-08-14 19:44:00,
2013-08-14 15:46:00,66.0,54.0,30.00,WNW,292,3.0,3.0,67,0.00,,,0.00,TxWx,2013-08-14 19:46:00,
2013-08-14 15:47:00,66.0,54.0,29.99,WNW,292,3.0,3.0,67,0.00,,,0.00,TxWx,2013-08-14 19:47:00,
2013-08-14 15:48:00,66.0,54.0,29.99,NW,315,3.0,3.0,67,0.00,,,0.00,TxWx,2013-08-14 19:48:00,
2013-08-14 15:49:00,75.0,56.0,29.82,SE,135,5.0,10.0,52,0.00,,,0.00,TxWx,2013-08-14 19:49:00,
2013-08-14 15:51:00,66.0,54.0,29.99,WNW,292,3.0,3.0,67,0.00,,,0.00,TxWx,2013-08-14 19:51:00,
2013-08-14 15:52:00,66.0,54.0,30.00,East,90,1.0,1.0,67,0.00,,,0.00,TxWx,2013-08-14 19:52:00,
2013-08-14 15:54:00,65.0,54.0,30.00,West,270,2.0,3.0,67,0.00,,,0.00,TxWx,2013-08-14 19:54:00,
2013-08-14 15:55:00,75.0,56.0,29.83,SSE,157,3.0,5.0,52,0.00,,,0.00,TxWx,2013-08-14 19:55:00,
2013-08-14 15:56:00,65.0,54.0,29.99,SSE,157,1.0,1.0,68,0.00,,,0.00,TxWx,2013-08-14 19:56:00,
2013-08-14 15:57:00,65.0,54.0,29.99,North,0,2.0,3.0,68,0.00,,,0.00,TxWx,2013-08-14 19:57:00,
2013-08-14 15:58:00,65.0,54.0,29.99,NE,45,1.0,2.0,68,0.00,,,0.00,TxWx,2013-08-14 19:58:00,
2013-08-14 16:00:00,75.0,56.0,29.83,ENE,67,11.0,11.0,52,0.00,,,0.00,TxWx,2013-08-14 20:00:00,
2013-08-14 16:05:00,74.0,55.0,29.83,SE,135,18.0,19.0,52,0.00,,,0.00,TxWx,2013-08-14 20:05:00,
2013-08-14 16:10:00,75.0,56.0,29.83,ENE,67,5.0,6.0,52,0.00,,,0.00,TxWx,2013-08-14 20:10:00,
2013-08-14 16:16:00,75.0,56.0,29.83,NNE,22,5.0,6.0,52,0.00,,,0.00,TxWx,2013-08-14 20:16:00,
2013-08-14 16:22:00,75.0,56.0,29.83,ESE,112,11.0,14.0,52,0.00,,,0.00,TxWx,2013-08-14 20:22:00,
2013-08-14 16:27:00,75.0,56.0,29.83,ENE,67,7.0,9.0,53,0.00,,,0.00,TxWx,2013-08-14 20:27:00,
2013-08-14 16:32:00,75.0,56.0,29.84,ENE,67,6.0,8.0,53,0.00,,,0.00,TxWx,2013-08-14 20:32:00,
2013-08-14 16:37:00,74.0,55.0,29.84,East,90,15.0,18.0,52,0.00,,,0.00,TxWx,2013-08-14 20:37:00,
2013-08-14 16:42:00,74.0,55.0,29.84,East,90,13.0,14.0,53,0.00,,,0.00,TxWx,2013-08-14 20:42:00,
2013-08-14 16:48:00,74.0,55.0,29.84,SE,135,11.0,14.0,53,0.00,,,0.00,TxWx,2013-08-14 20:48:00,
2013-08-14 16:53:00,74.0,55.0,29.85,East,90,8.0,8.0,53,0.00,,,0.00,TxWx,2013-08-14 20:53:00,
2013-08-14 16:58:00,74.0,55.0,29.85,East,90,11.0,12.0,52,0.00,,,0.00,TxWx,2013-08-14 20:58:00,
2013-08-14 17:03:00,74.0,55.0,29.85,ENE,67,7.0,10.0,52,0.00,,,0.00,TxWx,2013-08-14 21:03:00,
2013-08-14 17:08:00,75.0,57.0,29.85,East,90,4.0,8.0,53,0.00,,,0.00,TxWx,2013-08-14 21:08:00,
2013-08-14 17:14:00,74.0,56.0,29.85,SE,135,5.0,7.0,54,0.00,,,0.00,TxWx,2013-08-14 21:14:00,
2013-08-14 17:19:00,74.0,56.0,29.85,SSE,157,8.0,11.0,54,0.00,,,0.00,TxWx,2013-08-14 21:19:00,
2013-08-14 17:24:00,75.0,57.0,29.85,ESE,112,4.0,6.0,54,0.00,,,0.00,TxWx,2013-08-14 21:24:00,
2013-08-14 17:30:00,75.0,57.0,29.85,South,180,5.0,9.0,53,0.00,,,0.00,TxWx,2013-08-14 21:30:00,
2013-08-14 17:35:00,75.0,57.0,29.85,ESE,112,4.0,4.0,54,0.00,,,0.00,TxWx,2013-08-14 21:35:00,
2013-08-14 17:40:00,74.0,57.0,29.86,SSE,157,7.0,7.0,55,0.00,,,0.00,TxWx,2013-08-14 21:40:00,
2013-08-14 17:45:00,74.0,56.0,29.86,ESE,112,10.0,10.0,54,0.00,,,0.00,TxWx,2013-08-14 21:45:00,
2013-08-14 17:50:00,74.0,56.0,29.86,East,90,12.0,12.0,54,0.00,,,0.00,TxWx,2013-08-14 21:50:00,
2013-08-14 17:55:00,74.0,56.0,29.86,SE,135,6.0,11.0,54,0.00,,,0.00,TxWx,2013-08-14 21:55:00,
2013-08-14 18:00:00,74.0,56.0,29.87,SE,135,7.0,11.0,54,0.00,,,0.00,TxWx,2013-08-14 22:00:00,
2013-08-14 18:06:00,74.0,56.0,29.87,ESE,112,6.0,11.0,54,0.00,,,0.00,TxWx,2013-08-14 22:06:00,
2013-08-14 18:11:00,74.0,57.0,29.87,ESE,112,3.0,5.0,55,0.00,,,0.00,TxWx,2013-08-14 22:11:00,
2013-08-14 18:16:00,74.0,57.0,29.87,South,180,10.0,11.0,55,0.00,,,0.00,TxWx,2013-08-14 22:16:00,
2013-08-14 18:21:00,73.0,56.0,29.87,East,90,5.0,8.0,56,0.00,,,0.00,TxWx,2013-08-14 22:21:00,
2013-08-14 18:26:00,73.0,56.0,29.87,ESE,112,6.0,7.0,56,0.00,,,0.00,TxWx,2013-08-14 22:26:00,
2013-08-14 18:32:00,74.0,57.0,29.87,East,90,10.0,11.0,56,0.00,,,0.00,TxWx,2013-08-14 22:32:00,
2013-08-14 18:37:00,73.0,57.0,29.87,SE,135,8.0,8.0,57,0.00,,,0.00,TxWx,2013-08-14 22:37:00,
2013-08-14 18:43:00,73.0,57.0,29.87,SSE,157,7.0,11.0,57,0.00,,,0.00,TxWx,2013-08-14 22:43:00,
2013-08-14 18:48:00,73.0,57.0,29.88,ESE,112,8.0,8.0,57,0.00,,,0.00,TxWx,2013-08-14 22:48:00,
2013-08-14 18:53:00,73.0,57.0,29.88,NE,45,8.0,9.0,57,0.00,,,0.00,TxWx,2013-08-14 22:53:00,
2013-08-14 18:58:00,73.0,56.0,29.88,SE,135,8.0,9.0,56,0.00,,,0.00,TxWx,2013-08-14 22:58:00,
2013-08-14 19:03:00,73.0,56.0,29.89,ESE,112,10.0,10.0,56,0.00,,,0.00,TxWx,2013-08-14 23:03:00,
2013-08-14 19:09:00,72.0,55.0,29.88,SSE,157,3.0,6.0,56,0.00,,,0.00,TxWx,2013-08-14 23:09:00,
2013-08-14 19:14:00,72.0,55.0,29.89,East,90,7.0,13.0,56,0.00,,,0.00,TxWx,2013-08-14 23:14:00,
2013-08-14 19:19:00,72.0,56.0,29.89,ESE,112,3.0,4.0,57,0.00,,,0.00,TxWx,2013-08-14 23:19:00,
2013-08-14 19:25:00,72.0,56.0,29.89,South,180,2.0,2.0,58,0.00,,,0.00,TxWx,2013-08-14 23:25:00,
2013-08-14 19:30:00,71.0,56.0,29.89,South,180,5.0,6.0,59,0.00,,,0.00,TxWx,2013-08-14 23:30:00,
2013-08-14 19:35:00,71.0,56.0,29.89,South,180,4.0,4.0,59,0.00,,,0.00,TxWx,2013-08-14 23:35:00,
2013-08-14 19:41:00,71.0,56.0,29.90,SSE,157,3.0,3.0,59,0.00,,,0.00,TxWx,2013-08-14 23:41:00,
2013-08-14 19:46:00,71.0,56.0,29.90,South,180,5.0,5.0,60,0.00,,,0.00,TxWx,2013-08-14 23:46:00,
2013-08-14 19:51:00,71.0,56.0,29.91,SE,135,3.0,3.0,60,0.00,,,0.00,TxWx,2013-08-14 23:51:00,
2013-08-14 19:57:00,70.0,55.0,29.91,WSW,247,3.0,4.0,60,0.00,,,0.00,TxWx,2013-08-14 23:57:00,
2013-08-14 20:02:00,70.0,56.0,29.91,SSE,157,2.0,3.0,61,0.00,,,0.00,TxWx,2013-08-15 00:02:00,
2013-08-14 20:07:00,70.0,56.0,29.91,SSE,157,3.0,4.0,61,0.00,,,0.00,TxWx,2013-08-15 00:07:00,
2013-08-14 20:12:00,70.0,56.0,29.92,SSW,202,3.0,4.0,61,0.00,,,0.00,TxWx,2013-08-15 00:12:00,
2013-08-14 20:18:00,70.0,56.0,29.92,SSW,202,5.0,6.0,62,0.00,,,0.00,TxWx,2013-08-15 00:18:00,
2013-08-14 20:23:00,69.0,55.0,29.92,SSE,157,2.0,3.0,62,0.00,,,0.00,TxWx,2013-08-15 00:23:00,
2013-08-14 20:28:00,69.0,56.0,29.92,SE,135,3.0,4.0,63,0.00,,,0.00,TxWx,2013-08-15 00:28:00,
2013-08-14 20:33:00,69.0,56.0,29.93,East,90,3.0,3.0,63,0.00,,,0.00,TxWx,2013-08-15 00:33:00,
2013-08-14 20:38:00,69.0,56.0,29.93,SE,135,3.0,4.0,64,0.00,,,0.00,TxWx,2013-08-15 00:38:00,
2013-08-14 20:43:00,68.0,56.0,29.93,SSE,157,2.0,3.0,65,0.00,,,0.00,TxWx,2013-08-15 00:43:00,
2013-08-14 20:49:00,68.0,56.0,29.93,South,180,3.0,3.0,65,0.00,,,0.00,TxWx,2013-08-15 00:49:00,
2013-08-14 20:54:00,68.0,56.0,29.94,SSE,157,4.0,6.0,65,0.00,,,0.00,TxWx,2013-08-15 00:54:00,
2013-08-14 20:59:00,68.0,56.0,29.94,SSE,157,3.0,4.0,65,0.00,,,0.00,TxWx,2013-08-15 00:59:00,
2013-08-14 21:04:00,68.0,56.0,29.94,SE,135,4.0,5.0,65,0.00,,,0.00,TxWx,2013-08-15 01:04:00,
2013-08-14 21:09:00,68.0,56.0,29.94,SSE,157,3.0,5.0,65,0.00,,,0.00,TxWx,2013-08-15 01:09:00,
2013-08-14 21:14:00,68.0,56.0,29.94,South,180,2.0,3.0,66,0.00,,,0.00,TxWx,2013-08-15 01:14:00,
2013-08-14 21:19:00,68.0,56.0,29.95,ESE,112,3.0,4.0,66,0.00,,,0.00,TxWx,2013-08-15 01:19:00,
2013-08-14 21:24:00,68.0,56.0,29.95,NW,315,4.0,8.0,66,0.00,,,0.00,TxWx,2013-08-15 01:24:00,
2013-08-14 21:30:00,68.0,56.0,29.95,SSE,157,6.0,11.0,66,0.00,,,0.00,TxWx,2013-08-15 01:30:00,
2013-08-14 21:35:00,68.0,56.0,29.95,SE,135,3.0,6.0,66,0.00,,,0.00,TxWx,2013-08-15 01:35:00,
2013-08-14 21:40:00,68.0,56.0,29.96,SSE,157,5.0,5.0,66,0.00,,,0.00,TxWx,2013-08-15 01:40:00,
2013-08-14 21:46:00,68.0,56.0,29.96,SE,135,6.0,11.0,66,0.00,,,0.00,TxWx,2013-08-15 01:46:00,
2013-08-14 21:51:00,68.0,56.0,29.96,WSW,247,4.0,5.0,66,0.00,,,0.00,TxWx,2013-08-15 01:51:00,
2013-08-14 21:56:00,68.0,56.0,29.96,SSE,157,4.0,5.0,66,0.00,,,0.00,TxWx,2013-08-15 01:56:00,
2013-08-14 22:01:00,68.0,56.0,29.97,WSW,247,2.0,3.0,66,0.00,,,0.00,TxWx,2013-08-15 02:01:00,
2013-08-14 22:06:00,68.0,56.0,29.97,SSW,202,5.0,7.0,66,0.00,,,0.00,TxWx,2013-08-15 02:06:00,
2013-08-14 22:11:00,67.0,55.0,29.97,ENE,67,2.0,2.0,67,0.00,,,0.00,TxWx,2013-08-15 02:11:00,
2013-08-14 22:16:00,67.0,55.0,29.97,SSW,202,3.0,3.0,67,0.00,,,0.00,TxWx,2013-08-15 02:16:00,
2013-08-14 22:22:00,67.0,55.0,29.97,ESE,112,6.0,6.0,67,0.00,,,0.00,TxWx,2013-08-15 02:22:00,
2013-08-14 22:27:00,67.0,55.0,29.97,SSE,157,3.0,4.0,67,0.00,,,0.00,TxWx,2013-08-15 02:27:00,
2013-08-14 22:33:00,67.0,55.0,29.97,ESE,112,4.0,7.0,67,0.00,,,0.00,TxWx,2013-08-15 02:33:00,
2013-08-14 22:38:00,67.0,55.0,29.97,East,90,6.0,8.0,67,0.00,,,0.00,TxWx,2013-08-15 02:38:00,
2013-08-14 22:43:00,67.0,55.0,29.97,SE,135,10.0,10.0,66,0.00,,,0.00,TxWx,2013-08-15 02:43:00,
2013-08-14 22:48:00,67.0,55.0,29.97,East,90,3.0,4.0,66,0.00,,,0.00,TxWx,2013-08-15 02:48:00,
2013-08-14 22:53:00,67.0,55.0,29.97,South,180,3.0,4.0,66,0.00,,,0.00,TxWx,2013-08-15 02:53:00,
2013-08-14 22:59:00,67.0,55.0,29.97,East,90,5.0,5.0,66,0.00,,,0.00,TxWx,2013-08-15 02:59:00,
2013-08-14 23:04:00,67.0,55.0,29.97,SSE,157,7.0,8.0,67,0.00,,,0.00,TxWx,2013-08-15 03:04:00,
2013-08-14 23:10:00,67.0,55.0,29.97,ESE,112,4.0,6.0,67,0.00,,,0.00,TxWx,2013-08-15 03:10:00,
2013-08-14 23:15:00,67.0,55.0,29.97,SE,135,7.0,10.0,67,0.00,,,0.00,TxWx,2013-08-15 03:15:00,
2013-08-14 23:20:00,67.0,55.0,29.98,SE,135,5.0,6.0,67,0.00,,,0.00,TxWx,2013-08-15 03:20:00,
2013-08-14 23:25:00,67.0,56.0,29.98,NE,45,4.0,5.0,67,0.00,,,0.00,TxWx,2013-08-15 03:25:00,
2013-08-14 23:30:00,67.0,56.0,29.98,SSW,202,3.0,3.0,67,0.00,,,0.00,TxWx,2013-08-15 03:30:00,
2013-08-14 23:35:00,67.0,56.0,29.98,SE,135,7.0,10.0,67,0.00,,,0.00,TxWx,2013-08-15 03:35:00,
2013-08-14 23:41:00,67.0,55.0,29.98,ENE,67,6.0,6.0,67,0.00,,,0.00,TxWx,2013-08-15 03:41:00,
2013-08-14 23:46:00,67.0,55.0,29.98,SE,135,5.0,5.0,67,0.00,,,0.00,TxWx,2013-08-15 03:46:00,
2013-08-14 23:51:00,67.0,55.0,29.98,East,90,5.0,6.0,67,0.00,,,0.00,TxWx,2013-08-15 03:51:00,
2013-08-14 23:56:00,67.0,55.0,29.98,NNE,22,3.0,5.0,67,0.00,,,0.00,TxWx,2013-08-15 03:56:00,